Wetbulb
56.46 56.55 56.57 56.70 56.72 56.63 56.49 56.96 57.58 57.86 57.52 57.88 57.93 57.82 57.86 58.13 57.69 51.03 44.02 51.41 52.39 63.76 60.14 49.80 49.32 47.67 47.71 46.78 47.48 45.51 41.93 38.96 40.27 43.20 45.81 54.31 54.80 58.07 60.17 57.72 58.79 61.78 60.36 62.22 66.03
55.96 56.18 56.34 56.31 56.37 56.41 56.24 56.90 57.14 57.53 57.63 57.77 57.31 57.49 57.86 57.92 49.52 47.06 55.72 61.47 62.97 64.21 49.23 48.16 45.37 46.16 45.09 45.12 45.61 44.31 41.17 42.98 45.00 46.13 45.31 53.15 55.06 56.55 57.07 56.53 55.93 58.07 62.81 64.67 66.21
55.62 55.79 55.87 56.01 56.11 55.89 56.09 56.53 56.78 57.06 57.53 57.71 57.02 57.19 57.67 56.25 44.85 46.89 65.65 63.87 64.52 61.42 50.17 48.85 45.91 44.09 41.92 42.68 43.76 42.03 42.55 44.72 45.75 47.96 45.86 50.46 54.36 57.56 55.95 53.41 55.54 56.35 60.37 62.87 64.90
55.37 55.64 55.72 55.57 55.73 55.67 55.78 56.02 56.53 57.03 57.52 57.50 56.89 57.23 57.65 51.57 40.64 51.12 69.31 69.00 66.01 56.19 48.93 46.34 43.46 40.44 39.74 40.79 43.32 41.47 44.91 45.30 44.48 45.75 44.37 48.07 55.46 56.28 56.45 55.49 58.78 59.83 62.50 62.84 63.83
54.93 55.04 55.14 55.16 55.13 55.25 55.14 55.59 56.02 56.37 56.80 57.26 56.87 57.18 51.73 42.84 44.49 54.94 66.98 66.51 58.92 51.76 48.27 45.05 42.40 40.98 39.99 40.42 41.82 40.97 43.62 44.45 45.79 43.87 44.14 47.53 52.60 54.65 56.50 58.98 59.50 60.83 62.99 62.51 63.06
54.66 54.66 54.52 54.74 55.03 54.90 55.02 55.10 55.59 55.65 56.11 56.81 57.46 57.14 47.29 38.74 47.81 57.25 59.84 54.26 51.00 48.54 47.18 45.37 43.04 44.60 42.40 40.84 41.04 43.30 43.08 44.81 45.04 44.10 43.45 44.44 47.00 55.28 56.42 59.59 60.09 59.20 61.03 62.44 62.90
54.82 54.31 54.31 54.45 54.88 54.68 55.16 55.26 55.20 55.61 56.00 57.00 57.95 55.76 48.50 43.14 54.10 56.05 53.69 50.42 50.38 50.23 47.39 46.08 46.76 46.10 44.69 42.02 43.50 43.14 41.68 43.70 43.91 44.04 44.24 45.40 44.00 51.88 56.93 57.47 58.58 58.36 59.23 60.70 62.56
55.04 54.35 54.06 54.29 55.12 55.46 55.06 55.34 55.63 55.78 56.87 57.66 58.26 53.05 42.27 49.02 52.19 52.06 52.05 49.17 49.29 49.01 49.04 48.62 48.78 46.15 44.14 43.88 43.76 39.91 39.67 38.39 42.03 44.15 44.63 45.00 40.14 46.42 48.55 53.67 56.51 58.79 60.22 61.29 61.58
54.74 54.32 53.88 54.10 55.00 55.14 54.75 55.06 55.36 57.80 57.74 58.34 50.88 48.70 43.15 55.08 52.17 53.59 51.95 50.31 49.52 48.38 49.13 53.73 47.87 44.32 43.99 39.92 37.28 37.61 35.65 36.33 41.33 43.59 43.63 43.58 40.72 44.95 46.26 49.96 54.22 56.47 62.75 63.69 63.80
54.43 54.16 54.12 53.96 55.16 54.53 54.37 55.43 58.50 56.89 56.67 57.24 55.66 45.13 47.75 48.41 52.95 52.61 51.26 52.24 50.08 49.03 47.69 46.19 42.90 40.16 38.45 37.32 32.41 33.43 34.39 36.15 38.13 42.00 41.94 40.41 42.18 44.94 45.76 47.61 50.93 55.67 62.23 64.36 64.88
53.92 53.83 54.08 53.83 54.63 54.00 53.77 51.39 48.76 45.33 49.73 47.28 47.56 46.40 49.52 53.32 54.39 51.04 51.79 51.43 50.31 47.02 41.39 41.75 39.04 36.12 38.88 39.73 40.08 39.41 38.54 38.47 40.42 44.41 42.34 42.43 41.91 44.58 45.44 49.48 53.48 57.90 61.50 63.18 64.48
53.42 53.40 53.61 53.88 54.37 54.06 50.53 48.74 50.92 49.58 45.50 50.62 50.36 49.28 51.59 52.67 49.02 51.08 52.78 48.50 46.11 41.94 41.89 40.61 36.63 41.67 41.88 41.95 41.09 39.61 37.25 37.76 41.01 43.52 42.51 42.19 42.29 45.49 44.50 49.02 56.58 58.82 61.80 63.05 62.70
53.34 52.99 53.28 53.40 53.49 50.36 46.75 49.91 52.46 50.37 43.28 46.86 49.81 49.50 49.65 51.33 48.44 48.88 51.81 48.57 45.15 42.24 40.49 39.31 41.98 43.98 42.76 40.50 40.25 37.60 37.16 37.48 39.29 41.80 42.41 41.26 39.61 42.33 44.52 46.61 54.29 59.66 62.35 63.50 63.78
53.00 53.10 53.31 52.73 49.84 48.28 49.02 52.71 51.31 50.23 38.63 45.00 46.75 49.90 50.93 50.56 47.82 53.40 51.73 49.71 45.18 43.82 42.49 40.80 44.46 43.81 40.59 41.06 41.11 35.97 41.96 42.11 41.38 38.46 34.93 40.68 32.92 38.98 41.68 44.47 53.57 58.08 60.69 62.57 63.69
52.81 52.83 52.98 51.77 46.48 48.94 51.50 51.00 48.32 49.69 32.89 49.40 47.26 53.69 51.96 46.91 48.88 50.07 51.27 49.43 45.01 45.02 44.08 42.56 43.16 40.84 39.66 41.65 43.14 40.69 43.71 41.93 41.53 37.29 35.75 36.39 34.27 39.41 40.54 41.63 46.18 54.90 58.61 61.07 63.22
52.67 52.69 52.26 50.04 47.41 50.31 51.08 49.77 49.64 41.36 34.89 46.04 49.49 49.39 47.06 47.94 48.53 49.69 46.64 46.38 45.63 43.97 44.46 43.83 46.37 45.38 44.51 45.83 44.85 45.83 42.30 40.19 36.69 34.57 30.38 36.54 36.02 35.60 39.74 43.37 43.82 48.59 57.19 59.98 60.67
52.09 51.86 49.74 50.85 44.42 49.56 48.27 49.22 39.98 35.29 46.45 43.69 45.27 48.23 44.92 43.10 45.46 43.86 39.70 36.58 32.98 34.58 36.04 41.50 43.31 46.26 47.61 43.78 44.30 42.33 37.50 31.50 30.37 30.23 31.36 38.06 33.87 37.98 43.68 44.64 46.52 47.33 51.59 59.52 61.41
51.30 50.94 49.92 50.47 46.45 46.61 49.16 43.14 34.06 39.01 38.58 44.23 44.34 45.69 40.54 41.57 42.83 37.70 37.04 33.92 36.89 36.33 33.47 34.08 35.85 43.13 46.26 43.28 41.20 39.40 38.20 32.00 27.16 28.26 32.58 36.93 32.94 39.20 45.27 47.48 46.83 47.24 48.97 56.78 59.75
49.92 47.74 44.00 47.92 48.45 48.12 44.62 31.35 29.59 34.62 39.04 39.66 42.30 39.28 37.05 39.82 40.41 37.41 32.84 31.99 34.72 36.84 31.45 30.97 35.31 42.61 46.05 46.75 44.57 39.56 36.76 40.27 35.11 32.53 30.51 35.09 38.35 42.44 45.10 46.04 46.43 46.63 48.79 55.89 58.99
47.62 42.88 42.91 47.60 45.92 45.78 38.97 34.04 34.81 39.61 41.23 42.24 36.02 37.11 31.47 34.29 36.79 35.77 31.74 34.49 33.95 37.10 37.57 32.08 26.84 39.89 43.79 45.82 45.91 42.19 43.44 36.89 32.95 28.13 28.29 32.52 33.73 36.58 41.04 43.79 45.47 47.14 48.42 52.40 58.45
43.09 42.74 45.40 46.34 46.02 40.94 31.38 32.54 36.65 40.44 41.99 37.13 33.95 33.05 32.94 31.22 34.73 32.10 31.36 33.94 36.16 34.99 36.35 30.62 30.05 33.30 40.29 39.12 35.25 36.62 34.82 35.55 35.77 33.92 31.81 32.63 35.76 40.41 43.34 44.90 45.04 46.17 50.36 53.31 58.06
39.84 36.09 45.03 44.29 35.74 32.70 30.35 36.24 39.61 37.68 40.28 38.11 36.70 34.64 32.89 31.48 32.40 30.85 30.78 33.56 37.76 36.39 30.70 32.51 26.31 26.28 32.64 38.36 40.59 37.70 33.44 32.64 28.63 29.38 32.00 30.68 32.14 44.76 47.07 49.41 51.99 52.46 53.74 56.95 59.80
37.26 35.08 43.41 42.28 29.28 28.71 33.49 36.58 38.09 36.80 36.12 35.67 34.31 35.22 34.55 30.62 27.37 31.95 32.93 37.62 37.51 35.37 30.94 31.38 22.36 19.27 23.98 31.77 35.60 32.50 34.20 31.46 31.11 33.84 29.85 29.12 33.67 44.81 45.26 46.73 47.60 50.62 55.95 58.23 58.75
36.01 31.31 34.54 36.77 33.26 31.64 30.23 32.12 33.33 38.75 36.98 36.41 34.48 34.72 31.59 29.95 30.91 28.53 31.26 36.64 37.70 36.39 40.71 34.06 24.45 25.08 20.49 24.68 27.85 25.80 29.40 30.93 28.33 25.09 28.06 30.58 32.69 38.90 41.37 44.33 46.15 47.79 52.96 55.82 56.77
34.27 31.40 31.74 27.04 31.17 33.62 33.06 32.29 32.18 32.02 35.81 35.96 32.97 33.37 29.95 26.56 28.13 27.86 31.59 32.78 35.27 37.64 32.61 29.12 22.08 24.22 26.57 28.99 29.69 28.72 28.91 29.68 27.51 28.29 25.16 29.69 32.84 36.99 40.89 43.84 45.33 48.32 50.54 56.38 55.60
33.35 31.76 31.42 29.08 31.50 32.16 32.26 30.61 32.08 33.23 33.51 31.95 30.57 33.29 31.41 27.59 29.21 26.85 29.37 27.87 28.17 31.00 28.60 26.28 23.10 25.56 25.76 30.42 30.36 27.85 30.20 30.31 30.57 30.28 30.58 32.25 32.42 41.05 45.73 45.99 46.95 48.15 49.24 55.50 55.77
37.53 35.45 34.39 32.32 30.37 29.70 30.12 32.06 33.32 34.11 35.47 36.42 34.15 31.27 29.61 32.14 34.01 33.73 32.63 32.07 31.10 27.97 26.08 25.00 25.21 25.33 22.80 27.38 27.50 23.16 27.83 30.05 31.54 34.30 33.83 29.09 35.70 43.11 43.47 44.36 46.65 47.53 47.56 49.66 51.61
MSLP
1015.12 1014.82 1014.56 1014.39 1014.27 1014.13 1013.96 1013.78 1013.70 1013.65 1013.54 1013.44 1013.36 1013.27 1013.28 1013.32 1012.98 1012.95 1011.88 1009.19 1009.14 1009.11 1009.08 1009.19 1009.12 1009.18 1009.22 1009.60 1009.79 1010.33 1011.38 1011.71 1010.71 1010.27 1009.80 1009.43 1009.22 1009.27 1009.12 1009.23 1009.21 1009.32 1009.64 1009.65 1010.83
1015.06 1014.65 1014.34 1014.19 1014.03 1013.85 1013.70 1013.59 1013.54 1013.48 1013.43 1013.32 1013.22 1013.22 1013.16 1013.06 1012.89 1011.72 1008.57 1008.48 1008.78 1008.83 1009.26 1009.36 1009.48 1009.35 1009.67 1009.81 1010.00 1010.49 1011.30 1010.75 1009.91 1009.60 1009.42 1009.24 1009.22 1009.03 1009.18 1009.35 1009.36 1009.65 1009.63 1010.04 1011.01
1014.99 1014.57 1014.29 1014.06 1013.84 1013.63 1013.48 1013.39 1013.38 1013.37 1013.29 1013.16 1013.03 1012.95 1013.00 1013.03 1012.30 1009.21 1007.69 1007.97 1008.53 1008.81 1008.92 1009.10 1009.33 1009.47 1009.80 1009.87 1010.00 1010.29 1010.37 1009.71 1009.32 1009.03 1008.90 1008.95 1009.01 1008.82 1009.14 1009.22 1008.80 1009.46 1009.84 1010.34 1011.15
1014.83 1014.46 1014.08 1013.71 1013.51 1013.36 1013.32 1013.27 1013.18 1013.13 1013.07 1013.01 1012.93 1013.01 1013.00 1012.95 1011.07 1008.15 1007.59 1007.51 1008.34 1008.96 1009.11 1009.32 1009.56 1009.93 1010.10 1009.99 1009.77 1009.95 1009.55 1009.15 1008.97 1008.59 1008.62 1008.61 1008.38 1008.74 1008.94 1008.26 1007.91 1008.79 1009.80 1010.33 1010.95
1014.70 1014.24 1013.77 1013.50 1013.32 1013.21 1013.08 1012.99 1012.98 1012.95 1012.98 1012.97 1013.01 1013.00 1013.03 1012.32 1009.97 1008.07 1007.91 1007.89 1008.59 1009.06 1009.16 1009.52 1009.76 1009.97 1009.98 1009.93 1009.79 1009.74 1009.32 1009.04 1008.67 1008.60 1008.42 1008.18 1008.09 1008.29 1007.90 1008.27 1008.37 1008.49 1009.56 1010.25 1010.64
1014.57 1013.98 1013.58 1013.28 1012.96 1012.83 1012.82 1012.85 1012.91 1012.84 1012.91 1012.94 1012.92 1012.97 1012.80 1011.29 1008.26 1008.12 1008.24 1008.39 1008.60 1009.00 1009.30 1009.40 1009.53 1009.45 1009.72 1009.78 1009.73 1009.33 1009.13 1008.85 1008.49 1008.25 1008.18 1008.16 1008.12 1008.01 1007.06 1007.38 1008.24 1008.77 1009.32 1009.81 1010.32
1014.34 1013.85 1013.39 1013.06 1012.81 1012.63 1012.65 1012.73 1012.71 1012.72 1012.73 1012.85 1012.92 1012.94 1012.16 1009.33 1008.21 1008.31 1008.52 1008.55 1008.62 1008.73 1009.32 1009.28 1009.18 1009.33 1009.53 1009.67 1009.43 1009.30 1009.36 1008.78 1008.31 1008.04 1007.79 1007.98 1008.35 1007.93 1006.30 1007.20 1007.93 1008.41 1008.56 1009.24 1009.77
1014.22 1013.77 1013.27 1012.88 1012.64 1012.51 1012.57 1012.62 1012.61 1012.65 1012.70 1012.86 1012.94 1012.79 1011.00 1008.27 1008.19 1008.32 1008.33 1008.54 1008.64 1008.77 1008.86 1008.83 1009.00 1009.30 1009.54 1009.69 1009.83 1009.88 1009.81 1009.35 1008.18 1007.77 1007.66 1007.79 1008.06 1007.17 1006.82 1007.36 1007.92 1008.33 1008.66 1008.83 1009.23
1014.10 1013.65 1013.16 1012.74 1012.51 1012.46 1012.54 1012.51 1012.57 1012.52 1012.75 1012.93 1012.95 1012.45 1009.94 1008.05 1008.06 1007.36 1007.68 1008.10 1008.46 1008.77 1008.78 1008.91 1009.21 1009.80 1010.03 1010.47 1010.92 1011.02 1010.41 1009.77 1008.74 1007.86 1007.73 1007.88 1007.96 1007.44 1007.16 1007.64 1007.70 1008.21 1008.62 1008.74 1008.82
1013.98 1013.51 1013.10 1012.69 1012.38 1012.40 1012.45 1012.54 1012.57 1012.65 1013.01 1012.96 1012.43 1012.16 1009.17 1007.75 1007.12 1007.22 1007.54 1007.72 1008.13 1008.58 1009.07 1009.35 1009.98 1010.54 1011.18 1011.34 1011.71 1011.51 1010.95 1010.21 1009.42 1008.57 1008.14 1008.16 1008.01 1007.45 1007.50 1007.83 1007.55 1007.89 1008.28 1008.76 1008.83
1013.77 1013.32 1012.97 1012.65 1012.39 1012.41 1012.49 1012.65 1012.84 1012.82 1012.45 1010.95 1010.19 1009.47 1008.24 1007.09 1006.59 1007.04 1007.36 1007.83 1008.24 1008.71 1009.36 1009.81 1010.71 1011.04 1011.23 1011.20 1011.17 1011.22 1011.17 1010.86 1009.87 1008.87 1008.84 1008.18 1008.11 1007.67 1007.36 1007.68 1007.74 1007.68 1008.04 1008.31 1008.71
1013.75 1013.29 1012.91 1012.63 1012.49 1012.54 1012.55 1012.12 1011.02 1010.85 1010.62 1009.26 1009.08 1008.78 1007.98 1007.36 1007.34 1007.07 1007.09 1007.90 1008.56 1009.23 1009.58 1010.30 1010.60 1010.43 1010.60 1010.85 1011.02 1011.05 1010.97 1010.50 1009.78 1009.08 1009.22 1008.38 1008.17 1007.31 1007.57 1007.34 1006.99 1006.80 1007.33 1007.96 1008.31
1013.71 1013.16 1012.79 1012.63 1012.58 1012.71 1012.16 1010.95 1010.18 1010.35 1010.45 1008.61 1008.24 1007.94 1007.41 1007.50 1007.54 1006.95 1007.11 1007.74 1008.62 1009.48 1009.85 1010.36 1010.02 1009.89 1010.36 1010.57 1010.77 1010.81 1010.87 1010.54 1010.10 1009.53 1009.00 1008.68 1008.21 1007.31 1006.63 1006.41 1006.47 1006.80 1007.41 1007.30 1007.35
1013.24 1012.83 1012.60 1012.48 1012.97 1011.91 1011.28 1010.08 1009.88 1009.98 1010.12 1008.55 1007.65 1007.10 1007.21 1007.10 1007.08 1006.46 1006.74 1007.46 1008.72 1009.33 1010.06 1010.21 1009.50 1009.62 1009.90 1010.10 1010.39 1010.53 1009.89 1010.03 1010.16 1010.25 1009.98 1009.26 1008.77 1007.65 1006.87 1006.77 1006.83 1007.06 1007.56 1007.56 1007.77
1012.85 1012.41 1012.21 1012.35 1011.91 1011.30 1010.46 1009.93 1009.77 1009.75 1009.81 1008.22 1007.25 1006.43 1007.02 1007.65 1007.53 1007.21 1007.27 1007.71 1009.03 1009.70 1010.16 1009.79 1009.37 1009.36 1009.47 1009.40 1009.51 1009.55 1009.36 1009.80 1009.99 1010.39 1010.48 1009.90 1009.72 1007.95 1007.45 1007.16 1006.81 1006.98 1007.03 1007.42 1007.72
1012.37 1012.03 1012.05 1012.27 1011.93 1010.37 1009.96 1009.83 1009.89 1010.70 1010.20 1008.92 1008.08 1007.91 1008.16 1008.71 1008.97 1008.83 1009.50 1010.24 1011.56 1011.28 1010.71 1010.15 1009.39 1009.06 1008.62 1008.61 1008.91 1008.97 1009.51 1010.09 1010.78 1011.14 1010.97 1010.03 1009.58 1008.07 1007.26 1006.35 1006.00 1006.08 1006.48 1007.02 1007.73
1011.74 1011.51 1011.73 1011.29 1011.66 1010.13 1010.07 1010.23 1011.46 1011.91 1011.39 1011.37 1010.57 1010.15 1010.59 1011.38 1011.92 1012.75 1014.54 1015.62 1016.36 1015.07 1013.72 1012.02 1010.12 1009.10 1008.64 1008.80 1008.92 1009.33 1010.53 1011.47 1011.78 1011.97 1010.72 1009.53 1009.26 1007.18 1005.84 1005.36 1005.10 1004.98 1005.21 1005.76 1006.45
1011.29 1011.31 1011.41 1010.91 1010.86 1010.36 1010.46 1011.53 1013.54 1014.64 1014.36 1013.66 1013.26 1012.62 1013.38 1014.19 1014.67 1015.96 1016.62 1018.16 1018.59 1018.42 1017.57 1016.02 1012.43 1010.61 1010.39 1009.57 1009.18 1009.70 1010.57 1011.67 1011.74 1011.96 1010.91 1009.84 1008.34 1006.08 1004.88 1004.28 1004.48 1004.65 1004.53 1005.29 1006.21
1011.07 1011.36 1011.67 1010.90 1010.45 1010.28 1011.84 1014.80 1017.12 1017.15 1016.83 1015.98 1015.09 1015.47 1016.18 1016.17 1016.55 1017.61 1019.68 1020.75 1020.88 1020.38 1020.13 1018.95 1015.79 1012.96 1011.58 1011.02 1010.07 1010.03 1010.49 1010.28 1011.34 1011.60 1011.29 1009.57 1007.60 1005.96 1004.98 1004.48 1004.32 1004.37 1004.83 1005.16 1005.48
1011.27 1011.78 1012.09 1011.10 1010.70 1011.03 1013.83 1017.41 1018.29 1018.38 1017.80 1017.21 1017.62 1018.06 1018.60 1018.71 1018.60 1019.23 1021.12 1022.30 1022.01 1021.72 1021.27 1021.36 1019.37 1015.51 1013.48 1011.74 1010.68 1011.23 1010.86 1011.51 1012.45 1012.62 1011.91 1009.77 1008.21 1006.45 1005.62 1005.05 1004.42 1004.59 1004.68 1004.69 1005.16
1011.74 1012.49 1012.07 1011.43 1011.36 1013.79 1017.48 1018.84 1019.11 1018.95 1018.45 1018.70 1019.44 1019.96 1020.54 1020.95 1020.86 1021.52 1022.42 1022.95 1022.68 1022.47 1022.12 1022.10 1021.51 1018.12 1016.34 1015.03 1015.32 1014.41 1014.17 1014.42 1013.89 1013.29 1012.69 1011.12 1008.48 1006.62 1005.84 1005.41 1005.34 1004.59 1004.42 1004.73 1005.45
1013.12 1014.40 1013.05 1012.14 1014.91 1018.06 1019.61 1019.64 1019.79 1019.95 1019.68 1020.12 1020.58 1021.17 1021.76 1022.12 1022.27 1022.79 1023.31 1023.20 1023.15 1023.16 1023.15 1022.92 1022.62 1021.42 1019.16 1017.25 1017.27 1017.08 1017.97 1018.00 1018.10 1016.24 1015.33 1013.06 1009.66 1008.03 1008.04 1007.87 1007.48 1006.39 1005.68 1004.92 1005.31
1015.67 1016.30 1014.20 1013.66 1018.08 1020.21 1020.80 1020.87 1020.96 1020.98 1021.01 1021.30 1021.98 1022.28 1022.67 1023.27 1023.72 1023.65 1023.76 1023.37 1023.34 1023.53 1023.57 1023.62 1023.81 1022.80 1020.73 1019.66 1019.10 1019.46 1019.50 1020.05 1019.90 1018.80 1016.85 1015.12 1010.13 1008.37 1008.63 1008.60 1008.75 1008.39 1007.66 1006.60 1005.90
1016.81 1018.47 1018.53 1018.48 1020.29 1021.05 1021.65 1022.18 1022.03 1022.11 1022.44 1022.64 1023.20 1023.27 1023.63 1024.27 1024.40 1024.55 1024.18 1023.77 1023.62 1023.59 1023.47 1024.08 1024.91 1024.85 1024.13 1023.30 1022.98 1021.91 1020.38 1020.89 1020.93 1019.95 1017.52 1014.75 1012.32 1010.91 1010.36 1010.32 1009.78 1009.38 1008.74 1008.37 1007.53
1018.39 1021.55 1022.15 1022.85 1022.91 1022.56 1022.44 1023.45 1023.26 1023.32 1023.54 1023.74 1024.11 1024.44 1024.62 1025.12 1025.24 1025.22 1024.93 1024.69 1024.27 1024.07 1024.35 1025.05 1025.72 1025.40 1024.77 1023.71 1022.84 1022.08 1021.34 1020.72 1020.44 1019.27 1018.50 1013.40 1013.68 1012.16 1012.02 1011.74 1011.05 1010.58 1009.52 1008.68 1008.55
1020.06 1021.89 1023.07 1023.75 1023.92 1023.80 1023.99 1024.84 1024.53 1024.41 1024.54 1025.05 1025.31 1025.13 1025.11 1025.48 1025.70 1025.76 1025.79 1025.73 1025.51 1025.19 1025.51 1026.10 1026.15 1025.70 1024.36 1023.17 1022.45 1021.53 1020.73 1020.31 1019.74 1018.77 1017.57 1015.65 1013.65 1013.59 1012.78 1012.12 1011.42 1010.89 1010.19 1008.97 1008.61
1021.44 1021.88 1022.52 1024.83 1024.94 1024.89 1025.46 1025.33 1025.34 1025.09 1025.65 1025.60 1025.58 1025.50 1025.43 1025.51 1025.65 1025.67 1025.89 1026.00 1026.10 1026.32 1026.36 1026.62 1026.83 1026.51 1024.75 1023.55 1022.42 1021.41 1020.64 1020.34 1019.56 1018.53 1017.49 1016.16 1014.66 1013.63 1012.78 1012.63 1011.94 1011.28 1010.89 1010.15 1009.39
Wind_Speed
14 13 12 11 10 9 9 8 8 8 8 8 7 7 7 8 9 2 7 11 6 9 5 3 3 3 3 3 3 3 5 1 3 4 5 3 3 3 1 1 3 3 5 3 16
15 14 13 12 11 9 9 8 8 7 7 7 6 6 6 7 2 6 11 7 6 10 6 4 2 2 3 2 2 6 4 7 4 3 5 3 5 3 1 2 3 1 3 15 17
15 14 13 12 11 9 8 8 7 7 6 5 4 5 5 4 4 8 1 12 14 3 4 3 4 3 2 1 4 4 6 5 3 5 2 2 2 2 5 6 9 7 9 16 16
16 15 13 12 11 9 8 7 6 6 5 4 3 4 3 2 1 2 9 10 13 6 5 5 4 4 3 3 3 4 5 4 1 2 1 2 3 4 7 6 5 10 12 14 16
17 15 14 12 10 8 7 7 6 4 4 4 3 2 1 1 10 2 8 13 8 6 6 5 4 5 5 3 2 3 4 3 6 5 7 1 9 6 8 7 4 13 14 14 13
17 16 14 12 10 9 6 5 5 3 4 4 3 2 1 3 2 2 8 6 6 6 4 5 7 6 4 2 4 4 3 5 6 4 5 7 2 8 11 12 8 11 14 12 12
17 16 14 12 10 7 5 5 4 3 2 3 4 2 1 14 3 5 5 3 5 4 5 3 3 2 4 1 2 1 4 5 4 3 5 6 1 9 15 7 8 10 11 13 16
17 16 14 12 9 6 4 3 2 2 2 5 5 2 8 4 1 4 5 2 2 2 1 4 5 2 2 1 6 1 5 1 5 1 3 7 8 13 5 5 11 10 9 9 12
18 15 15 12 8 3 1 1 1 3 4 5 1 0 10 4 3 5 6 3 5 3 3 2 2 1 3 5 6 7 3 3 6 2 1 5 6 3 2 6 9 11 11 10 8
18 15 13 11 7 3 4 3 6 7 3 3 3 3 5 0 3 3 3 3 3 4 2 3 5 3 4 5 5 3 1 3 4 3 2 2 9 10 8 9 14 10 11 13 12
20 17 13 10 4 6 7 5 4 1 2 8 6 4 5 7 2 2 4 6 2 5 2 2 4 4 7 5 4 2 3 6 5 7 4 8 6 12 7 7 7 10 10 9 13
20 17 14 7 2 5 1 1 4 3 8 10 7 5 5 2 5 2 6 5 4 4 1 6 3 9 3 4 3 2 3 7 6 4 7 9 11 15 7 9 14 16 13 12 6
17 15 12 6 2 2 3 6 1 2 1 7 5 4 5 9 7 6 8 5 4 4 4 7 5 5 5 3 3 2 5 5 9 4 4 5 7 9 2 4 4 6 9 9 18
18 14 9 4 2 3 4 1 6 6 5 7 3 2 3 5 3 6 6 7 2 9 6 5 6 5 3 6 7 4 7 9 7 3 4 3 7 7 5 6 6 6 7 10 9
17 14 8 7 1 2 5 7 1 4 5 10 4 3 2 1 3 8 1 4 7 6 7 10 5 4 3 7 8 10 6 7 5 4 1 2 1 9 1 5 8 9 11 10 9
16 10 1 4 2 5 7 7 3 7 2 8 4 8 4 10 9 9 11 16 4 4 2 7 2 6 8 2 7 4 1 4 5 3 2 8 8 6 6 8 4 6 11 12 9
17 4 5 1 4 11 6 4 6 5 6 10 8 8 6 9 10 13 13 19 10 11 8 10 5 5 3 6 3 3 5 4 5 3 8 6 2 8 6 9 9 10 13 17 16
14 7 5 2 6 5 4 7 7 5 5 7 8 6 8 10 7 13 5 7 14 7 4 6 10 5 13 3 7 6 10 7 6 5 8 4 7 8 12 11 8 7 8 7 13
6 1 4 11 10 3 8 9 1 4 7 8 4 7 7 7 6 7 9 7 9 9 6 8 8 12 9 9 2 2 5 8 4 1 1 6 8 8 8 10 9 11 7 11 15
3 4 4 18 7 6 9 6 3 5 6 2 5 7 8 10 8 7 5 8 5 10 3 1 9 5 11 9 6 4 3 3 2 4 9 5 5 7 3 10 10 7 11 10 9
5 5 6 16 5 10 7 4 4 10 4 6 4 5 4 5 3 4 6 4 7 11 6 3 3 9 8 7 7 11 8 8 4 4 7 12 8 8 10 8 9 10 8 8 8
4 5 6 9 9 4 4 3 3 9 7 6 5 5 4 7 5 5 3 1 6 5 4 3 2 5 7 18 6 4 4 5 5 10 4 4 8 5 9 14 15 16 8 6 11
5 2 6 4 7 3 4 9 7 7 8 4 6 6 5 5 4 4 3 3 7 5 2 3 2 6 7 4 6 6 3 7 4 2 6 3 7 14 17 16 13 15 10 4 14
6 5 7 9 4 8 6 6 5 8 9 6 5 6 5 7 5 2 6 2 9 3 6 4 0 5 6 6 8 14 18 7 2 5 6 17 22 20 19 16 18 17 13 7 8
5 3 2 4 7 12 9 4 9 5 4 11 6 6 3 4 5 2 3 4 5 6 3 3 3 3 8 15 16 17 18 20 16 15 11 22 19 15 10 9 12 13 15 7 8
7 6 5 3 3 8 7 5 5 4 6 3 3 6 1 5 5 5 1 2 5 5 4 3 3 4 11 13 13 17 18 18 16 19 21 24 29 4 7 6 10 12 15 10 11
4 3 7 6 4 5 4 3 5 5 3 4 4 2 2 4 4 8 7 6 5 2 1 2 1 5 6 10 11 6 5 6 9 14 13 17 16 7 12 14 15 10 13 13 13
Wind_Direction
336 332 329 324 320 316 309 304 302 298 293 292 294 303 306 308 305 148 247 223 175 150 97 343 43 340 56 79 68 124 60 292 248 124 273 286 194 164 169 1 1 339 154 190 123
334 331 329 322 317 316 312 308 304 304 295 287 282 285 304 331 295 244 246 214 205 149 131 158 138 55 51 100 59 94 120 221 213 189 232 202 197 156 17 27 254 134 45 122 137
336 332 325 320 315 314 312 305 301 298 292 284 288 302 313 320 337 248 347 201 184 156 100 119 118 87 102 76 170 165 177 216 253 231 249 261 216 127 131 247 218 181 172 146 155
337 332 327 326 319 314 306 299 302 303 306 293 278 281 302 282 266 34 314 203 166 163 129 106 69 83 110 179 176 144 237 210 264 179 345 227 174 166 193 257 174 150 168 158 170
337 333 333 326 319 309 302 299 295 302 297 266 232 239 253 7 253 5 74 121 114 128 142 125 124 138 161 196 140 174 237 196 240 250 250 141 227 205 243 175 89 132 166 182 190
338 337 333 327 323 313 301 285 277 273 264 241 209 161 220 257 247 55 123 124 128 117 135 134 179 196 128 194 172 208 243 280 256 233 231 193 305 149 263 141 169 151 178 189 199
338 337 334 330 322 309 289 268 263 266 252 203 190 237 163 238 78 122 136 173 165 138 143 226 176 135 136 244 233 206 301 331 230 180 248 152 110 224 233 156 165 176 180 182 196
338 335 335 332 325 304 269 261 270 241 198 177 179 272 247 248 310 171 164 133 144 167 168 187 163 95 169 227 20 61 53 74 271 262 160 126 248 255 261 200 178 170 193 192 187
339 336 336 336 330 318 239 62 203 146 137 154 127 145 271 319 264 214 155 163 147 156 217 148 131 139 42 80 15 4 231 212 308 290 312 159 247 247 236 210 227 173 182 202 211
339 338 335 341 343 104 109 137 121 104 156 214 254 337 275 159 207 170 183 113 106 123 80 120 54 76 39 75 221 238 281 285 254 296 52 276 255 274 237 202 218 213 181 184 205
339 338 338 349 38 132 119 95 24 4 243 203 197 234 297 280 150 123 142 98 46 46 156 35 85 197 223 198 184 189 201 246 254 262 320 265 275 278 278 226 228 208 203 196 196
335 334 335 347 57 146 64 138 216 189 302 236 248 283 289 35 339 13 139 116 124 207 34 14 266 228 186 146 190 217 298 278 259 235 169 282 282 277 183 216 208 202 190 201 185
328 326 328 329 106 101 188 231 118 17 272 298 186 198 220 141 207 249 147 127 141 170 191 179 233 103 159 196 189 244 219 250 241 333 265 286 296 302 307 285 273 218 228 206 198
327 324 317 313 157 178 240 298 306 171 57 294 3 342 126 145 241 207 176 144 168 198 184 227 259 219 162 229 147 268 219 241 269 73 265 127 278 305 311 282 249 189 202 213 199
326 323 306 226 248 148 317 333 193 61 57 317 28 173 106 145 339 351 75 10 189 189 127 239 197 168 163 216 165 229 190 216 243 224 71 266 155 265 2 265 250 227 211 204 201
328 328 306 113 250 258 309 306 54 46 20 350 33 3 41 9 5 336 23 28 32 4 285 245 269 166 217 204 187 247 353 24 37 90 248 224 174 249 226 211 237 219 214 199 191
333 301 173 189 304 311 319 51 45 81 328 354 349 349 84 3 32 27 52 53 28 6 10 333 261 236 197 301 175 168 66 317 324 344 235 244 163 226 251 237 224 217 213 207 192
337 140 212 120 287 300 50 55 73 354 351 354 4 34 52 11 31 18 49 42 21 17 324 352 333 359 343 221 245 176 160 168 246 226 262 123 234 251 220 239 240 267 250 182 188
323 49 33 341 345 45 71 56 159 332 323 318 332 35 11 358 23 77 59 27 20 4 24 357 270 325 323 329 261 196 176 208 210 190 318 235 280 305 247 249 237 233 197 199 195
90 70 12 342 339 59 70 108 96 350 313 1 75 12 34 355 29 51 61 12 7 357 337 34 289 287 313 326 4 336 230 254 20 217 252 247 254 232 280 252 261 252 227 224 188
53 53 315 345 40 52 88 92 62 359 79 46 43 57 65 16 15 47 12 73 22 355 41 25 196 299 341 17 13 339 3 352 282 139 243 269 265 223 226 270 287 266 232 207 172
74 52 327 349 57 44 51 62 67 4 25 61 74 68 51 20 42 82 83 37 22 353 348 345 308 296 292 281 53 51 76 37 56 320 304 242 262 8 27 2 352 324 275 154 150
82 6 330 28 93 49 48 82 79 25 21 56 40 47 36 37 75 87 12 256 29 340 353 350 346 313 325 41 33 20 45 19 280 295 247 298 255 352 348 350 350 345 326 172 145
81 47 352 28 43 100 103 29 100 31 48 55 50 54 48 29 18 74 358 330 327 302 22 52 182 191 244 265 291 299 296 293 214 250 277 254 292 304 330 342 337 335 320 289 182
39 81 177 15 16 66 76 52 60 47 61 23 30 29 51 45 4 348 265 324 316 323 44 100 238 273 274 263 256 262 264 287 270 249 246 277 281 288 308 309 313 318 307 252 222
106 110 16 60 42 58 30 15 56 34 35 51 54 307 78 149 188 258 267 227 248 336 19 13 271 273 282 279 268 264 254 258 269 279 265 271 268 318 305 305 320 329 327 263 229
354 45 98 357 27 72 17 38 8 121 97 99 274 292 282 241 245 241 208 230 235 272 241 121 17 327 280 330 309 289 294 274 282 289 273 268 286 314 330 330 321 336 333 323 316